When you browse on this site, cookies collect data to enhance your experience and personalize the content and advertising you see.
Visit our Privacy Policy to learn more. By continuing to use the site, you agree to this use of cookies and data.
  • En España
  • Lista de países
  • Para 7 días
  • Temperatura del agua
  • El tiempo en el mapa
  • Informadores
  • user-avatar
    Iniciar sesión

    Tiempo cada hora Seoul

    Hoy, 5 Junio, Viernes

    Tiempo Temperatura Precipitaciones Viento Presión Humedad
    00:00 +22°C° 0 mm 1 mps 748 mmHg 83%
    01:00 +21°C° 0 mm 1 mps 748 mmHg 85%
    02:00 +21°C° 0 mm 1 mps 748 mmHg 86%
    03:00 +21°C° 0 mm 1 mps 749 mmHg 84%
    04:00 +21°C° 0 mm 1 mps 749 mmHg 83%
    05:00 +20°C° 0 mm 0 mps 749 mmHg 81%
    06:00 +23°C° 0 mm 1 mps 749 mmHg 74%
    07:00 +24°C° 0 mm 1 mps 749 mmHg 67%
    08:00 +25°C° 0 mm 1 mps 749 mmHg 60%
    09:00 +27°C° 0 mm 1 mps 750 mmHg 52%
    10:00 +28°C° 0 mm 1 mps 750 mmHg 44%
    11:00 +30°C° 0 mm 2 mps 750 mmHg 36%
    12:00 +30°C° 0 mm 2 mps 749 mmHg 35%
    13:00 +31°C° 0 mm 3 mps 749 mmHg 34%
    14:00 +31°C° 0 mm 3 mps 748 mmHg 33%
    15:00 +30°C° 0 mm 3 mps 749 mmHg 36%
    16:00 +29°C° 0 mm 3 mps 749 mmHg 39%
    17:00 +29°C° 0 mm 3 mps 749 mmHg 42%
    18:00 +27°C° 0 mm 3 mps 749 mmHg 46%
    19:00 +26°C° 0 mm 2 mps 750 mmHg 50%
    20:00 +25°C° 0 mm 1 mps 750 mmHg 54%
    21:00 +24°C° 0 mm 1 mps 750 mmHg 55%
    22:00 +24°C° 0 mm 1 mps 751 mmHg 57%
    23:00 +22°C° 0 mm 0 mps 751 mmHg 58%

    Mañana, 6 Junio, Sábado

    Tiempo Temperatura Precipitaciones Viento Presión Humedad
    00:00 +21°C° 0 mm 0 mps 751 mmHg 60%
    01:00 +21°C° 0 mm 0 mps 751 mmHg 61%
    02:00 +20°C° 0 mm 0 mps 751 mmHg 63%
    03:00 +20°C° 0 mm 0 mps 751 mmHg 64%
    04:00 +22°C° 0 mm 1 mps 751 mmHg 64%
    05:00 +21°C° 0 mm 1 mps 751 mmHg 65%
    06:00 +23°C° 0 mm 1 mps 751 mmHg 59%
    07:00 +25°C° 0 mm 1 mps 751 mmHg 53%
    08:00 +25°C° 0 mm 0 mps 751 mmHg 47%
    09:00 +27°C° 0 mm 0 mps 751 mmHg 42%
    10:00 +29°C° 0 mm 0 mps 751 mmHg 37%
    11:00 +30°C° 0 mm 0 mps 751 mmHg 32%
    12:00 +33°C° 0 mm 1 mps 751 mmHg 31%
    13:00 +33°C° 0 mm 1 mps 750 mmHg 30%
    14:00 +34°C° 0 mm 2 mps 750 mmHg 29%
    15:00 +33°C° 0 mm 3 mps 750 mmHg 32%
    16:00 +31°C° 0 mm 3 mps 750 mmHg 35%
    17:00 +30°C° 0 mm 4 mps 750 mmHg 39%
    18:00 +28°C° 0 mm 3 mps 750 mmHg 42%
    19:00 +27°C° 0 mm 2 mps 751 mmHg 46%
    20:00 +26°C° 0 mm 2 mps 751 mmHg 49%
    21:00 +25°C° 0 mm 1 mps 751 mmHg 50%
    22:00 +24°C° 0 mm 1 mps 752 mmHg 51%
    23:00 +24°C° 0 mm 1 mps 752 mmHg 52%

    Pasado mañana, 7 Junio, Domingo

    Tiempo Temperatura Precipitaciones Viento Presión Humedad
    00:00 +23°C° 0 mm 1 mps 752 mmHg 53%
    01:00 +23°C° 0 mm 1 mps 752 mmHg 55%
    02:00 +22°C° 0 mm 1 mps 752 mmHg 56%
    03:00 +22°C° 0 mm 1 mps 752 mmHg 58%
    04:00 +22°C° 0 mm 1 mps 753 mmHg 59%
    05:00 +22°C° 0 mm 1 mps 753 mmHg 61%
    06:00 +23°C° 0 mm 1 mps 753 mmHg 57%
    07:00 +24°C° 0 mm 1 mps 753 mmHg 53%
    08:00 +26°C° 0 mm 2 mps 753 mmHg 49%
    09:00 +27°C° 0 mm 2 mps 753 mmHg 44%
    10:00 +28°C° 0 mm 2 mps 753 mmHg 39%
    11:00 +30°C° 0 mm 2 mps 753 mmHg 34%
    12:00 +30°C° 0 mm 3 mps 752 mmHg 34%
    13:00 +30°C° 0 mm 3 mps 752 mmHg 33%
    14:00 +30°C° 0 mm 4 mps 751 mmHg 32%
    15:00 +29°C° 0 mm 4 mps 751 mmHg 37%
    16:00 +29°C° 0 mm 4 mps 751 mmHg 42%
    17:00 +28°C° 0 mm 3 mps 751 mmHg 47%
    18:00 +27°C° 0 mm 3 mps 752 mmHg 53%
    19:00 +25°C° 0 mm 2 mps 752 mmHg 59%
    20:00 +24°C° 0 mm 2 mps 752 mmHg 66%
    21:00 +24°C° 0 mm 1 mps 753 mmHg 68%
    22:00 +23°C° 0 mm 1 mps 753 mmHg 70%
    23:00 +23°C° 0 mm 1 mps 754 mmHg 72%

    8 Junio, Lunes

    Tiempo Temperatura Precipitaciones Viento Presión Humedad
    00:00 +22°C° 0 mm 1 mps 754 mmHg 74%
    01:00 +22°C° 0 mm 1 mps 754 mmHg 75%
    02:00 +20°C° 0 mm 0 mps 754 mmHg 76%
    03:00 +20°C° 0 mm 0 mps 754 mmHg 77%
    04:00 +20°C° 0 mm 0 mps 754 mmHg 77%
    05:00 +20°C° 0 mm 0 mps 754 mmHg 78%
    06:00 +21°C° 0 mm 0 mps 755 mmHg 70%
    07:00 +25°C° 0 mm 1 mps 755 mmHg 63%
    08:00 +27°C° 0 mm 1 mps 755 mmHg 55%
    09:00 +28°C° 0 mm 2 mps 755 mmHg 50%
    10:00 +29°C° 0 mm 2 mps 755 mmHg 46%
    11:00 +30°C° 0 mm 3 mps 754 mmHg 41%
    12:00 +31°C° 0 mm 3 mps 754 mmHg 40%
    13:00 +32°C° 0 mm 4 mps 754 mmHg 40%
    14:00 +32°C° 0 mm 4 mps 754 mmHg 40%
    15:00 +30°C° 0 mm 4 mps 753 mmHg 42%
    16:00 +29°C° 0 mm 4 mps 753 mmHg 44%
    17:00 +28°C° 0 mm 4 mps 753 mmHg 47%
    18:00 +27°C° 0 mm 3 mps 754 mmHg 50%
    19:00 +26°C° 0 mm 2 mps 754 mmHg 54%
    20:00 +25°C° 0 mm 1 mps 755 mmHg 58%
    21:00 +25°C° 0 mm 1 mps 755 mmHg 59%
    22:00 +25°C° 0 mm 1 mps 755 mmHg 61%
    23:00 +22°C° 0 mm 0 mps 755 mmHg 62%

    9 Junio, Martes

    Tiempo Temperatura Precipitaciones Viento Presión Humedad
    00:00 +22°C° 0 mm 0 mps 755 mmHg 63%
    01:00 +22°C° 0 mm 0 mps 755 mmHg 65%
    02:00 +23°C° 0 mm 1 mps 755 mmHg 66%
    03:00 +21°C° 0 mm 0 mps 755 mmHg 67%
    04:00 +21°C° 0 mm 0 mps 755 mmHg 68%
    05:00 +21°C° 0 mm 0 mps 755 mmHg 68%
    06:00 +23°C° 0 mm 0 mps 755 mmHg 62%
    07:00 +24°C° 0 mm 0 mps 756 mmHg 56%
    08:00 +26°C° 0 mm 0 mps 756 mmHg 49%
    09:00 +29°C° 0 mm 1 mps 755 mmHg 45%
    10:00 +30°C° 0 mm 2 mps 755 mmHg 40%
    11:00 +32°C° 0 mm 2 mps 755 mmHg 36%
    12:00 +33°C° 0 mm 3 mps 755 mmHg 35%
    13:00 +34°C° 0 mm 3 mps 755 mmHg 34%
    14:00 +34°C° 0 mm 4 mps 754 mmHg 33%
    15:00 +33°C° 0 mm 4 mps 754 mmHg 34%
    16:00 +31°C° 0 mm 3 mps 754 mmHg 36%
    17:00 +29°C° 0 mm 3 mps 754 mmHg 37%
    18:00 +28°C° 0 mm 3 mps 754 mmHg 39%
    19:00 +27°C° 0 mm 2 mps 755 mmHg 40%
    20:00 +26°C° 0 mm 1 mps 755 mmHg 42%
    21:00 +26°C° 0 mm 1 mps 755 mmHg 44%
    22:00 +25°C° 0 mm 1 mps 755 mmHg 45%
    23:00 +25°C° 0 mm 1 mps 756 mmHg 47%

    10 Junio, Miércoles

    Tiempo Temperatura Precipitaciones Viento Presión Humedad
    00:00 +23°C° 0 mm 0 mps 755 mmHg 48%
    01:00 +22°C° 0 mm 0 mps 755 mmHg 49%
    02:00 +22°C° 0 mm 0 mps 755 mmHg 50%
    03:00 +22°C° 0 mm 0 mps 754 mmHg 51%
    04:00 +24°C° 0 mm 1 mps 754 mmHg 51%
    05:00 +24°C° 0 mm 1 mps 754 mmHg 51%
    06:00 +25°C° 0 mm 1 mps 753 mmHg 49%
    07:00 +25°C° 0 mm 1 mps 753 mmHg 47%
    08:00 +26°C° 0 mm 1 mps 753 mmHg 44%
    09:00 +26°C° 0.3 mm 1 mps 752 mmHg 50%
    10:00 +26°C° 0.3 mm 2 mps 752 mmHg 55%
    11:00 +25°C° 0.3 mm 2 mps 752 mmHg 61%
    12:00 +25°C° 1.2 mm 2 mps 751 mmHg 68%
    13:00 +25°C° 1.2 mm 1 mps 750 mmHg 76%
    14:00 +24°C° 1.2 mm 1 mps 750 mmHg 84%
    15:00 +24°C° 2.5 mm 2 mps 749 mmHg 85%
    16:00 +24°C° 2.5 mm 3 mps 749 mmHg 87%
    17:00 +24°C° 2.5 mm 3 mps 748 mmHg 88%
    18:00 +23°C° 3.1 mm 5 mps 748 mmHg 88%
    19:00 +23°C° 3.1 mm 6 mps 748 mmHg 87%
    20:00 +23°C° 3.1 mm 7 mps 748 mmHg 87%
    21:00 +23°C° 6.2 mm 7 mps 748 mmHg 89%
    22:00 +23°C° 6.2 mm 7 mps 748 mmHg 90%
    23:00 +22°C° 6.2 mm 7 mps 747 mmHg 92%
    Mostrar más